{"data":{"norad_id":57531,"epoch":"2026-05-25T02:31:26.965344Z","epoch_age_seconds":76245,"freshness":"FRESH","line1":"1 57531U 23115L   26145.10517321 -.00001973  00000+0 -62153-4 0  9993","line2":"2 57531  43.0048 290.4325 0001756 269.6846  90.3804 15.27590115154030","mean_motion":15.27590115,"eccentricity":0.0001756,"inclination_deg":43.0048,"raan_deg":290.4325,"arg_perigee_deg":269.6846,"mean_anomaly_deg":90.3804,"bstar":-6.2153e-5,"rev_number":15403,"period_min":94.266124522546,"perigee_km":481.813989298,"apogee_km":484.22362721786,"semimajor_km":6861.1558082579,"source":"CELESTRAK","updated_at":"2026-05-25T13:38:18.334067Z"}}